Regional Weather Roundup
Issued by NWS

Home | Current Version | Previous Version | Graphics & Text | Print | Product List | Glossary On
Versions: 1 2 3 4 5 6 7 8 9 10 11 12 13 14 15 16 17 18 19 20 21 22 23 24 25 26 27 28 29 30 31 32 33 34 35 36 37 38 39 40 41 42 43 44 45 46 47 48 49 50
000
ASUS43 KLOT 010910
RWRIL

ILLINOIS REGIONAL WEATHER ROUNDUP
NATIONAL WEATHER SERVICE CHICAGO/ROMEOVILLE IL
400 AM CDT SAT NOV 01 2014

NOTE: "FAIR" INDICATES FEW OR NO CLOUDS BELOW 12,000 FEET WITH NO
SIGNIFICANT WEATHER AND/OR OBSTRUCTIONS TO VISIBILITY.

* THESE STATIONS ARE NOT UNDER NWS QUALITY CONTROL. THEY ALSO MAY NOT
  REPORT WEATHER SUCH AS PRECIPITATION OR FOG.

ILZ001-002-007-009-015-016-024-011000-
NORTHWEST ILLINOIS

CITY           SKY/WX    TMP DP  RH WIND       PRES   REMARKS
MOLINE         CLEAR     29  18  63 N5        30.46S WCI  24
STERLING*      CLEAR     27  18  69 N8        30.43S WCI  18
SAVANNA*       CLEAR     27  18  70 N5        30.46S WCI  21
$$

ILZ003-004-008-010-011-017-018-011000-
NORTH CENTRAL ILLINOIS

CITY           SKY/WX    TMP DP  RH WIND       PRES   REMARKS
ROCKFORD       MOCLDY    30  19  63 NW8       30.43S WCI  22
FREEPORT*      CLEAR     22  17  82 N7        30.45F WCI  14
ROCHELLE*      CLOUDY    29  20  69 NW8       30.41S WCI  21
DE KALB*       CLOUDY    31  20  63 N10       30.39R WCI  23
PERU*          MOCLDY    30  21  68 NW13      30.41R WCI  20
$$

ILZ005-006-012>014-019>023-011000-
NORTHEAST ILLINOIS

CITY           SKY/WX    TMP DP  RH WIND       PRES   REMARKS
CHICAGO-OHARE  CLOUDY    35  22  58 N14       30.35S WCI  26
CHICAGO-MIDWAY CLOUDY    40  25  55 N20G30    30.33S
AURORA         CLOUDY    35  21  56 N15       30.37S WCI  25
LANSING*       CLOUDY    39  27  63 NE16G24   30.32S WCI  30
JOLIET*        CLOUDY    35  23  61 N10       30.35S WCI  27
WAUKEGAN       CLOUDY    35  23  61 N7        30.36R WCI  29
DUPAGE AIRPORT CLOUDY    35  22  58 N14       30.35S WCI  26
KANKAKEE*      CLOUDY    36  26  65 N14G21    30.33R WCI  27
WHEELING       CLOUDY    36  23  59 N12       30.38R WCI  28
MORRIS*        CLOUDY    35  24  64 N8        30.36R WCI  29
ROMEOVILLE*    CLOUDY    35  23  60 N13G18    30.35R WCI  26
NORTHERLY ISL    N/A     40  28  63 N21         N/A
$$

LMZ740>746-011000-
SOUTHERN LAKE MICHIGAN

STATION/POSITION SKY/WX   TEMP    WIND        PRES    VSBY  WAVE
                          AIR SEA DIR/SP/G                  HT/PER
                          (F)     (DEG/KT/KT) (MB)    (MI)  (FT/S)
SOUTHERN BUOY              38 48   10/ 21/ 27 1027.7R         9/ 9
WAUKEGAN HARBOR            39      10/ 23/ 26   N/A
HARRISON CRIB              39      20/ 29/ 35   N/A
BURNHAM HARBOR             39      30/ 18/ 26   N/A
CALUMET HARBOR             40     350/ 15/ 25 1025.7R
MICHIGAN CITY              38      10/ 26/ 32   N/A
$$

ILZ025>027-034>036-040-047-049-050-058-095>099-011000-
WEST-CENTRAL ILLINOIS

CITY           SKY/WX    TMP DP  RH WIND       PRES   REMARKS
QUINCY         CLEAR     25  19  78 N5        30.44S WCI  19
GALESBURG*     CLEAR     22  18  87 NW5       30.45R WCI  15
MACOMB*        CLEAR     24  20  85 N7        30.47S WCI  16
JACKSONVILLE*  CLEAR     29  22  75 NW7       30.43S WCI  22
PITTSFIELD*    CLEAR     31  21  67 N8        30.44F WCI  23
$$

ILZ028>032-037-038-041>044-048-051>054-059>061-011000-
CENTRAL ILLINOIS

CITY           SKY/WX    TMP DP  RH WIND       PRES   REMARKS
PONTIAC        PTCLDY    33  23  68 N9        30.37R WCI  25
BLOOMINGTON    PTCLDY    30  21  69 NW16      30.37R WCI  19
DECATUR        MOCLDY    33  23  66 N17G29    30.36S WCI  22
PEORIA         CLEAR     30  18  60 N8        30.42R WCI  22
LACON*         PTCLDY    28  19  67 N8        30.42R WCI  20
LINCOLN*       CLEAR     31  22  70 NW6       30.40R WCI  25
SPRINGFIELD    CLEAR     31  20  63 N12       30.40S WCI  22
TAYLORVILLE    CLEAR     30  21  69 N15       30.37F WCI  19
$$

ILZ033-039-045-046-055>057-062-063-011000-
EAST-CENTRAL ILLINOIS

CITY           SKY/WX    TMP DP  RH WIND       PRES   REMARKS
CHAMPAIGN      MOCLDY    35  23  61 N14       30.32S WCI  26
DANVILLE*      CLEAR     28  26  92 N6        30.28R WCI  22
RANTOUL*       CLOUDY    36  24  63 N13G18    30.32S WCI  27
MATTOON        CLEAR     31  22  69 NW14      30.31S WCI  21
PARIS*         PTCLDY    32  28  86 CALM      30.31R
$$

ILZ079-100>102-011000-
SOUTHWEST ILLINOIS

CITY           SKY/WX    TMP DP  RH WIND       PRES   REMARKS
ALTON          CLEAR     31  20  62 NW6       30.41S WCI  25
BELLEVILLE     CLEAR     31  22  70 NW9       30.39R WCI  23
CAHOKIA*       CLEAR     35  21  56 N13       30.41S WCI  26
SPARTA*        CLEAR     32  22  68 NW7       30.39R WCI  26
$$

ILZ064>066-069>071-074>076-080>082-084>086-088>090-092>094-011000-
SOUTH-CENTRAL ILLINOIS

CITY           SKY/WX    TMP DP  RH WIND       PRES   REMARKS
CARBONDALE     CLEAR     32  22  66 NW10      30.35  WCI  24
CAIRO*         CLEAR     37  23  56 NW8       30.34R WCI  31
EFFINGHAM*     CLEAR     34  20  57 N15       30.33S WCI  24
MARION         CLEAR     36  21  55 N9        30.34S WCI  29
MT. VERNON     CLEAR     34  18  51 N7        30.34R WCI  28
CENTRALIA*     CLEAR     32  22  64 N14G20    30.35S WCI  22
SALEM*         CLEAR     34  24  68 N14G21    30.35S WCI  25
METROPOLIS*    CLEAR     35  24  64 N10G17    30.30S WCI  27
$$

ILZ067-068-072-073-078-083-087-091-011000-
SOUTHEAST ILLINOIS

CITY           SKY/WX    TMP DP  RH WIND       PRES   REMARKS
LAWRENCEVILLE  MOCLDY    36  28  73 N13       30.29R WCI  27
FLORA*         CLEAR     33  24  67 NW10      30.33R WCI  25
FAIRFIELD*     CLEAR     33  23  67 N8        30.31R WCI  26
HARRISBURG*    CLEAR     34  22  62 N12       30.33R WCI  25
ROBINSON*      MOCLDY    37  30  77 N14       30.30R WCI  28
CARMI*         CLOUDY    37  28  67 NW14G21   30.30R WCI  29
$$

ABBREVIATIONS USED IN REMARKS
   TC - TEMPERATURE IN CELSIUS
  WCI - WIND CHILL INDEX
   HX - HEAT INDEX
  VSB - VISIBILITY
$$




USA.gov is the U.S. government's official web portal to all federal, state and local government web resources and services.